Вернуться в каталог

GAOFEN-5 02

АктивенНаукаSSO
NORAD 49122·PAYLOAD·🇨🇳 China

Запущен Sep 7, 2021 с Taiyuan Satellite Launch Center

Loading…

Ближайшие Пролёты (ближайшие 24 часа)

TLE

СвежийSource: Space-Track

Эпоха: Sep 14, 2026, 15:10 UTC

1 49122U 21079A   26257.63227687  .00000088  00000-0  29264-4 0  9993
2 49122  98.2543 331.2600 0002125  77.7021 282.4416 14.57679832267116

Отслеживайте GAOFEN-5 02 в реальном времени с AllMySat

Download on the App Store